Home   Weather   Rae-Edzo   Past weeks

Flag for Canada Past Weather in Rae-Edzo, Northwest Territories, Canada — Yesterday and Last 2 Weeks

Now
2 °F

Frigid.


Feels Like: -9 °F
Forecast: -4 / 2 °F
Wind: 6 mph from South

Location: Lac La Martre

Current Time: Jan 24, 2017 at 8:46:05 am

Latest Report: Jan 24, 2017 at 7:00 am


Visibility: N/A

Pressure: 29.84 "Hg

Humidity: 94%

Dew Point: 0 °F

Location of Rae-EdzoLocation

Past Weather in Rae-Edzo — Graph

°F

Rae-Edzo Temperature Yesterday

Maximum temperature yesterday: -1 °F (at 6:00 pm)
Minimum temperature yesterday: -23 °F (at 1:00 am)
Average temperature yesterday: -9 °F

High & Low Weather Summary for the Past Weeks

 TemperatureHumidityPressure
High14 °F (Jan 10, 10:00 pm)95% (Jan 20, 2:00 am)30.40 "Hg (Jan 20, 2:00 am)
Low-39 °F (Jan 11, 8:00 pm)57% (Jan 9, 3:00 pm)29.05 "Hg (Jan 17, 3:00 am)
Average-10 °F79%29.74 "Hg
* Reported Jan 9 7:00 am — Jan 24 7:00 am, Rae-Edzo, Weather by CustomWeather, © 2017

Note: Actual official high and low records may vary slightly from our data, if they occured in-between our weather recording intervals... More about our weather records

Advertising

Rae-Edzo Weather History for the Previous 24 Hours

Scroll right to see more
 ConditionsComfort  
Time TempWeatherWind HumidityBarometerVisibility
7:00 am
Tue, Jan 24
2 °FFrigid.6 mph94%29.84 "HgN/A
6:00 am1 °FFrigid.3 mph85%29.86 "HgN/A
5:00 am0 °FFrigid.3 mph85%29.86 "HgN/A
4:00 am0 °FFrigid.2 mph85%29.89 "HgN/A
3:00 am0 °FFrigid.3 mph85%29.89 "HgN/A
2:00 am-2 °FFrigid.3 mph84%29.88 "HgN/A
1:00 am-4 °FFrigid.3 mph84%29.89 "HgN/A
12:00 am-5 °FFrigid.5 mph83%29.90 "HgN/A
11:00 pm
Mon, Jan 23
-4 °FFrigid.5 mph83%29.90 "HgN/A
10:00 pm-4 °FFrigid.5 mph83%29.91 "HgN/A
9:00 pm-4 °FFrigid.6 mph84%29.93 "HgN/A
8:00 pm-3 °FFrigid.6 mph83%29.95 "HgN/A
7:00 pm-3 °FFrigid.6 mph84%29.96 "HgN/A
6:00 pm-1 °FFrigid.6 mph84%29.98 "HgN/A
5:00 pm-2 °FFrigid.6 mph84%29.98 "HgN/A
4:00 pm-2 °FFrigid.6 mph84%30.01 "HgN/A
3:00 pm-3 °FFrigid.7 mph84%30.03 "HgN/A
2:00 pm-3 °FFrigid.6 mph84%30.04 "HgN/A
1:00 pm-5 °FFrigid.5 mph83%30.08 "HgN/A
12:00 pm-7 °FFrigid.5 mph82%30.08 "HgN/A
11:00 am-8 °FFrigid.5 mph81%30.11 "HgN/A
10:00 am-9 °FFrigid.5 mph81%30.12 "HgN/A
9:00 amN/A5 mphN/A30.15 "HgN/A
8:00 am-10 °FExtremely cold.5 mph80%30.16 "HgN/A
Weather by CustomWeather, © 2017

See weather overviewHow to use our weather pages